Weather History for KGSH - February, 2012

Change the Weather History Date:

Wednesday, February 29, 2012

  Actual Average Record
Temperature  
Mean Temperature 50 °F -  
Max Temperature 64 °F - 64 °F (2012)
Min Temperature 37 °F - 2 °F (1980)
Degree Days  
Heating Degree Days 14    
Moisture  
Dew Point 36 °F    
Average Humidity 75    
Maximum Humidity 93    
Minimum Humidity 25    
Precipitation  
Precipitation 0.64 in - - ()
Sea Level Pressure  
Sea Level Pressure 29.65 in    
Wind  
Wind Speed 17 mph (SSE)    
Max Wind Speed 30 mph    
Max Gust Speed 41 mph    
Visibility 6 miles    
Events Rain , Thunderstorm    
Averages and records for this station are not official NWS values.
T = Trace of Precipitation, MM = Missing Value Source: NWS Daily Summary

Daily Weather History Graph

Daily Weather History Graph

Search for Another Location

Airport or City:

Trip Planner

Search our weather history database for the weather conditions in past years. The results will help you decide how hot, cold, wet, or windy it might be!

Date:

Astronomy

Feb. 29, 2012 Rise Set
Actual Time 7:18 AM EST 6:33 PM EST
Civil Twilight 6:50 AM EST 7:01 PM EST
Nautical Twilight 6:18 AM EST 7:33 PM EST
Astronomical Twilight 5:46 AM EST 8:05 PM EST
Moon 11:03 AM EST (2/29) 1:25 AM EST (2/29)
Length of Visible Light 12h 10m
Length of Day
11h 14m
Waxing Crescent, 47% of the Moon is Illuminated
Feb 29
Waxing Crescent
Feb 29
First Quarter
Mar 8
Full
Mar 14
Last Quarter
Mar 22
New

Hourly Weather History & Observations

Time (EST) Temp. Windchill Dew Point Humidity Pressure Visibility Wind Dir Wind Speed Gust Speed Precip Events Conditions
12:53 AM 37.9 °F 28.9 °F 30.9 °F 76% 29.94 in 9.0 mi ESE 16.1 mph - 0.00 in Rain Light Rain
1:53 AM 37.0 °F 28.5 °F 32.0 °F 82% 29.91 in 6.0 mi East 13.8 mph - 0.14 in Rain , Thunderstorm Rain
2:02 AM 37.4 °F 28.9 °F 32.0 °F 81% 29.89 in 4.0 mi East 13.8 mph - 0.04 in Rain Rain
2:45 AM 37.4 °F 25.9 °F 33.8 °F 87% 29.80 in 2.0 mi ESE 25.3 mph 31.1 mph 0.27 in Rain Heavy Rain
2:53 AM 37.0 °F 25.9 °F 34.0 °F 89% 29.82 in 2.0 mi ESE 23.0 mph 29.9 mph 0.31 in Rain Rain
3:04 AM 37.4 °F 28.2 °F 33.8 °F 87% 29.80 in 3.0 mi ESE 16.1 mph 31.1 mph 0.03 in Rain Light Rain
3:13 AM 37.4 °F 27.8 °F 33.8 °F 87% 29.80 in 2.5 mi ESE 17.3 mph 26.5 mph 0.06 in Rain Rain
3:29 AM 37.4 °F 29.3 °F 33.8 °F 87% 29.79 in 4.0 mi East 12.7 mph 23.0 mph 0.11 in Rain Light Rain
3:53 AM 37.9 °F 29.2 °F 35.1 °F 89% 29.79 in 4.0 mi ESE 15.0 mph 21.9 mph 0.14 in Rain Light Rain
4:53 AM 39.0 °F 29.6 °F 35.1 °F 86% 29.75 in 5.0 mi ESE 18.4 mph - 0.01 in Rain Light Rain
5:29 AM 39.2 °F 30.2 °F 35.6 °F 87% 29.72 in 4.0 mi SE 17.3 mph 24.2 mph 0.01 in Rain Light Rain
5:44 AM 39.2 °F 30.2 °F 35.6 °F 87% 29.71 in 4.0 mi SE 17.3 mph 24.2 mph 0.01 in Rain Light Rain
5:53 AM 39.0 °F 30.3 °F 36.0 °F 89% 29.72 in 3.0 mi ESE 16.1 mph 24.2 mph 0.01 in Rain Light Rain
5:57 AM 39.2 °F 30.2 °F 35.6 °F 87% 29.70 in 2.5 mi SE 17.3 mph 24.2 mph 0.00 in Rain Light Rain
6:13 AM 39.2 °F 30.2 °F 35.6 °F 87% 29.68 in 3.0 mi ESE 17.3 mph 24.2 mph 0.02 in Rain , Thunderstorm Light Rain
6:20 AM 39.2 °F 30.2 °F 35.6 °F 87% 29.68 in 4.0 mi ESE 17.3 mph 24.2 mph 0.02 in Rain , Thunderstorm Light Rain
6:34 AM 39.2 °F 31.6 °F 35.6 °F 87% 29.67 in 4.0 mi ESE 12.7 mph - 0.02 in   Overcast
6:53 AM 39.0 °F 30.3 °F 36.0 °F 89% 29.66 in 3.0 mi ESE 16.1 mph - 0.02 in   Overcast
7:46 AM 39.2 °F 31.2 °F 37.4 °F 93% 29.62 in 4.0 mi ESE 13.8 mph - N/A   Overcast
7:53 AM 39.9 °F 31.8 °F 37.0 °F 89% 29.64 in 4.0 mi ESE 15.0 mph 25.3 mph N/A   Overcast
8:24 AM 39.2 °F 31.2 °F 37.4 °F 93% 29.63 in 2.5 mi ESE 13.8 mph - N/A   Overcast
8:42 AM 39.2 °F 30.5 °F 37.4 °F 93% 29.62 in 1.5 mi ESE 16.1 mph - N/A   Overcast
8:53 AM 39.9 °F 32.9 °F 37.9 °F 93% 29.63 in 1.2 mi ESE 11.5 mph 23.0 mph N/A   Overcast
9:53 AM 42.1 °F 36.1 °F 39.9 °F 92% 29.62 in 1.5 mi SE 10.4 mph - N/A   Overcast
10:21 AM 44.6 °F 43.1 °F 42.8 °F 93% 29.61 in 2.0 mi ESE 3.5 mph - N/A   Overcast
10:53 AM 48.9 °F - 46.0 °F 90% 29.61 in 2.5 mi SSE 9.2 mph - N/A   Overcast
11:04 AM 50.0 °F - 46.4 °F 87% 29.59 in 3.0 mi SSE 9.2 mph - N/A   Overcast
11:12 AM 51.8 °F - 48.2 °F 88% 29.59 in 4.0 mi South 9.2 mph - N/A   Overcast
11:28 AM 53.6 °F - 48.2 °F 82% 29.58 in 5.0 mi SSE 9.2 mph - N/A   Scattered Clouds
11:53 AM 57.0 °F - 52.0 °F 83% 29.58 in 6.0 mi SSE 9.2 mph - N/A   Haze
12:20 PM 64.4 °F - 46.4 °F 52% 29.57 in 10.0 mi SW 21.9 mph 28.8 mph N/A   Clear
12:53 PM 64.0 °F - 37.9 °F 38% 29.56 in 10.0 mi SW 23.0 mph 33.4 mph N/A   Clear
1:53 PM 64.9 °F - 39.0 °F 39% 29.52 in 10.0 mi SW 20.7 mph 32.2 mph N/A   Clear
2:53 PM 64.9 °F - 33.1 °F 31% 29.50 in 10.0 mi SW 18.4 mph 31.1 mph N/A   Clear
3:53 PM 64.0 °F - 34.0 °F 33% 29.48 in 10.0 mi SW 26.5 mph 34.5 mph N/A   Clear
4:53 PM 62.1 °F - 30.0 °F 30% 29.46 in 10.0 mi SW 29.9 mph 40.3 mph N/A   Clear
5:53 PM 60.1 °F - 24.1 °F 25% 29.46 in 10.0 mi WSW 24.2 mph 36.8 mph N/A   Scattered Clouds
6:53 PM 55.0 °F - 30.0 °F 38% 29.49 in 10.0 mi West 19.6 mph 27.6 mph N/A   Mostly Cloudy
7:53 PM 50.0 °F - 30.0 °F 46% 29.55 in 10.0 mi West 28.8 mph 38.0 mph N/A   Overcast
8:53 PM 45.0 °F 35.4 °F 30.9 °F 58% 29.58 in 10.0 mi WSW 28.8 mph 41.4 mph 0.00 in Rain Light Rain
9:36 PM 39.2 °F 29.3 °F 33.8 °F 81% 29.60 in 10.0 mi West 20.7 mph 29.9 mph 0.00 in Rain Light Rain
9:53 PM 39.0 °F 29.6 °F 33.1 °F 79% 29.62 in 10.0 mi West 18.4 mph 27.6 mph 0.00 in Rain Light Rain
10:53 PM 37.9 °F 26.1 °F 28.9 °F 70% 29.62 in 10.0 mi West 27.6 mph 36.8 mph 0.01 in   Overcast
11:34 PM 37.4 °F 28.5 °F 28.4 °F 70% 29.61 in 10.0 mi WSW 15.0 mph - N/A   Overcast
11:53 PM 37.0 °F 27.4 °F 28.9 °F 73% 29.62 in 10.0 mi WSW 17.3 mph 26.5 mph N/A   Overcast